Regional Weather Roundup
Issued by NWS Wilmington, NC

Home | Current Version | Previous Version | Text Only | Print | Product List | Glossary On
Versions: 1 2 3 4 5 6 7 8 9 10 11 12 13 14 15 16 17 18 19 20 21 22 23 24 25 26 27 28
000
ASUS42 KILM 251713
RWRILM
RWRILM
REGIONAL HOURLY WEATHER ROUNDUP
NATIONAL WEATHER SERVICE WILMINGTON NC
1200 PM EST SAT FEB 25 2017

NOTE: "FAIR" INDICATES FEW OR NO CLOUDS BELOW 12,000 FEET WITH NO
SIGNIFICANT WEATHER AND/OR OBSTRUCTIONS TO VISIBILITY.

...............WFO WILMINGTON COUNTY WARNING AREA...............

......COASTAL NC AND SC COUNTIES......

CITY           SKY/WX    TMP DP  RH WIND       PRES   REMARKS
WILMINGTON     SUNNY     76  58  53 S16G22    29.75F
N MYRTLE BEACH CLOUDY    65  62  90 S13       29.77F
MYRTLE BEACH   MOSUNNY   68  63  83 S14       29.77F

......INLAND NC AND SC COUNTIES.......

CITY           SKY/WX    TMP DP  RH WIND       PRES   REMARKS
LUMBERTON      MOSUNNY   77  61  57 SW14G25   29.70F
ELIZABETHTOWN  SUNNY     77  58  52 S13       29.73F
WHITEVILLE     SUNNY     77  60  54 S13G18    29.73F
FLORENCE       SUNNY     78  58  49 SW20G26   29.72F
DARLINGTON     MOSUNNY   76  59  55 SW23G30   29.71F
KINGSTREE      FAIR      75  55  50 SW10      29.75F
HARTSVILLE     FAIR      73  55  53 SW14      29.71F
BENNETTSVILLE  NOT AVBL
CONWAY         FAIR      77  61  57 SW13G20   29.75F HAZE
GEORGETOWN     FAIR      79  59  50 SW16G23   29.77F
MARION         PTSUNNY   75  59  57 SW20      29.74F

....................REST OF NORTH CAROLINA......................

.........EASTERN NC.........

CITY           SKY/WX    TMP DP  RH WIND       PRES   REMARKS
CAPE HATTERAS  SUNNY     72  61  68 SW7       29.76F HAZE
JACKSONVILLE   MOSUNNY   77  58  51 SW15G24   29.74F
MOREHEAD CITY  SUNNY     71  63  75 SW15      29.76F
KENANSVILLE    SUNNY     75  57  53 SW6       29.73F
NEW BERN       SUNNY     77  57  50 SW14G22   29.74F
ELIZABETH CITY SUNNY     74  60  61 S8        29.70F

.........CENTRAL NC.........

CITY           SKY/WX    TMP DP  RH WIND       PRES   REMARKS
RALEIGH DURHAM PTSUNNY   77  56  48 SW20G29   29.65F
ROCKY MOUNT    SUNNY     76  57  51 S13G21    29.68F
ROANOKE RAPIDS NOT AVBL
FAYETTEVILLE   SUNNY     79  59  50 SW18G28   29.69F
HOFFMAN        MOSUNNY   77  57  49 SW16G25   29.67F

.........WESTERN NC.........

CITY           SKY/WX    TMP DP  RH WIND       PRES   REMARKS
CHARLOTTE      PTSUNNY   74  56  53 SW17G24   29.68F
GREENSBORO     PTSUNNY   72  57  59 SW15G23   29.63F
HICKORY        NOT AVBL
BOONE          NOT AVBL
ASHEVILLE      NOT AVBL

.....................REST OF SOUTH CAROLINA.....................

.........EASTERN SC.........

CITY           SKY/WX    TMP DP  RH WIND       PRES   REMARKS
CHARLESTON     MOSUNNY   80  56  43 SW16G22   29.78F
BEAUFORT MCAS  CLOUDY    80  60  50 W18G26    29.80F
HILTON HEAD    SUNNY     77  61  57 SW14      29.82F

.........CENTRAL SC.........

CITY           SKY/WX    TMP DP  RH WIND       PRES   REMARKS
COLUMBIA       CLOUDY    73  58  59 W17G23    29.75S
ORANGEBURG     MOSUNNY   75  59  57 SW17G24   29.77F
SUMTER SHAW    MOSUNNY   75  59  56 SW15G26   29.72F

.........WESTERN SC.........

CITY           SKY/WX    TMP DP  RH WIND       PRES   REMARKS
GREENVILLE     NOT AVBL
ROCK HILL      PTSUNNY   74  56  53 W18G26    29.70F
ANDERSON       SUNNY     70  38  31 W15       29.76R
CLEMSON        NOT AVBL
GREENWOOD      MOSUNNY   73  38  27 W21G30    29.77R


...................COASTAL AND OFFSHORE REPORTS..................

................LOCAL PIERS AND NC RESERVE................


STATION/POSITION TIME  SKY/WX   TEMP    WIND        PRES    VSBY
                                AIR SEA DIR/SP/G
                 (UTC)          (F)     (DEG/KT/KT) (MB)    (MI)
JOHNY MRCER PIER 1648            63 62  180/ 17/ 18 1006.7F
NC RESRV MASNBRO NOT AVBL
OCEAN CREST PIER NOT AVBL
SPRINGMAID  PIER 1648                               1007.4F


................COASTAL AND OFFSHORE BUOYS................


STATION/POSITION TIME  SKY/WX   TEMP    WIND        PRES    VSBY
                                AIR SEA DIR/SP/G
                 (UTC)          (F)     (DEG/KT/KT) (MB)    (MI)
DIMNDSHOAL 41025 1650            70 76  250/ 10/ 12 1007.6F
WVE H/P(F/S)=  7/11 SWL H/P/D(F/S/D)=  7/130/11

CAPE LOOKOUT     1600            70     220/  8/  9 1008.4F
ONSLOW BAY 41036 NOT AVBL
ONSLOW BAY 41064 1608            66     240/  8/ 12 1009.1F
ONSLOW BAY 41159 1643               69                N/A
WVE H/P(F/S)=  6/11 SWL H/P/D(F/S/D)=  3/130/11

MASNBO INL 41110 1659               59                N/A
WVE H/P(F/S)=  4/11 SWL H/P/D(F/S/D)=  2/130/11

WILM HARBR 41108 1647               60                N/A
WVE H/P(F/S)=  4/10 SWL H/P/D(F/S/D)=  2/140/11

27SE WRITB 41037 1608            66 65  210/  8/ 12 1008.5F
FRYING PAN 41013 1650            71 72  220/ 14/ 17 1008.9F
WVE H/P(F/S)=  6/11 SWL H/P/D(F/S/D)=  5/110/11

SUNST NRSH 41024 1608            62 60  200/  8/ 10 1008.7F
CAPRS NRSH 41029 1608            61 61  230/ 14/ 17 1009.5F
EDISTO     41004 1550            70 70  240/ 17/ 21 1009.6
WVE H/P(F/S)=  6/10 SWL H/P/D(F/S/D)=  5/120/10



..........OFFSHORE BUOYS BEYOND 100 NM OFFSHORE...........
.....IN A TRIANGLE---HAT TO BERMUDA TO BAHAMAS TO HAT.....


STATION/POSITION TIME  SKY/WX   TEMP    WIND        PRES    VSBY
                                AIR SEA DIR/SP/G
                 (UTC)          (F)     (DEG/KT/KT) (MB)    (MI)
150E HAT   41001 NOT AVBL
W BERMUDA  41048 1650            70 70  230/ 12/ 14 1008.9F
WVE H/P(F/S)=  8/ 9 SWL H/P/D(F/S/D)=  8/140/ 9

ATLANTIC S 41049 1650            73 72  140/ 12/ 16 1017.3F
WVE H/P(F/S)=  7/ 6 SWL H/P/D(F/S/D)=  5/120/ 6

E BAHAMAS  41046 1650            77 78   CALM  /  2 1015.0F
WVE H/P(F/S)=  5/13 SWL H/P/D(F/S/D)=  5/13

NE BAHAMAS 41047 1650            74 73  220/ 14/ 16 1012.5F
WVE H/P(F/S)=  7/ 8 SWL H/P/D(F/S/D)=  5/120/ 8

120E CANVRL41010 NOT AVBL

END




USA.gov is the U.S. government's official web portal to all federal, state and local government web resources and services.